Regional Weather Roundup
Issued by NWS

Home | Current Version | Previous Version | Text Only | Print | Product List | Glossary On
Versions: 1 2 3 4 5 6 7 8 9 10 11 12 13 14 15 16 17 18 19 20 21 22 23 24 25 26 27 28 29 30 31 32 33 34 35 36 37 38 39 40 41 42 43 44 45 46 47 48 49 50
000
ASUS43 KDTX 162201
RWRMI
MICHIGAN HOURLY REGIONAL WEATHER ROUNDUP
NATIONAL WEATHER SERVICE DETROIT/PONTIAC MI
600 PM EDT TUE SEP 16 2014

NOTE: "FAIR" INDICATES FEW OR NO CLOUDS BELOW 12,000 FEET WITH NO
SIGNIFICANT WEATHER AND/OR OBSTRUCTION TO VISIBILITY.

MIZ047>049-052>055-059>063-066>070-074>076-081>083-162300-
SOUTHEAST LOWER MICHIGAN

CITY           SKY/WX    TMP DP  RH WIND       PRES   REMARKS
ADRIAN         SUNNY     66  41  40 NW8       30.09F
ALMA           MOSUNNY   63  41  43 W12       30.09S
ANN ARBOR      MOSUNNY   64  42  44 W7        30.08F
BAD AXE        MOSUNNY   62  46  57 W9        30.07S
CARO           PTSUNNY   62  48  59 W3        30.06F
DETROIT CITY   MOSUNNY   67  40  37 W6        30.07F
DETROIT        MOSUNNY   66  42  41 W7        30.09S
FLINT          PTSUNNY   65  45  48 W8        30.08F
GROSSE ILE     PTSUNNY   64  50  59 S9        30.08S
HILLSDALE      MOSUNNY   64  43  47 NW6       30.10S
HOWELL         MOSUNNY   62  44  51 W7        30.08S

CITY           SKY/WX    TMP DP  RH WIND       PRES   REMARKS
JACKSON        SUNNY     62  44  51 VRB5      30.09F
LAMBERTVILLE   MOSUNNY   66  41  39 W3        30.10S
LANSING        MOSUNNY   63  45  51 W9        30.09F
LAPEER         MOCLDY    62  43  49 CALM      30.08S
MASON          PTSUNNY   64  46  52 W9        30.08F
MONROE         MOSUNNY   66  43  42 SW3       30.07S
MT. CLEMENS    MOSUNNY   61  46  56 SE5       30.06F
PONTIAC        MOSUNNY   63  42  46 NW9       30.08S
PORT HOPE        N/A     63  44  50 W8        30.05S
PORT HURON     PTSUNNY   63  46  55 W3        30.08S
TRI CITIES     MOSUNNY   65  44  46 W13       30.08S
TROY           MOSUNNY   66  37  34 W7        30.09F
SAGINAW HB     PTSUNNY   63  43  48 W5        30.06S
$$
MIZ043>046-050>051-056>058-064>065-071>073-077>080-162300-
SOUTHWEST LOWER MICHIGAN

CITY           SKY/WX    TMP DP  RH WIND       PRES   REMARKS
BATTLE CREEK   MOSUNNY   63  46  54 NW10      30.11S
BENTON HARBOR  SUNNY     60  44  55 W7        30.12F
BIG RAPIDS     SUNNY     61  43  52 NW12      30.09R
COLDWATER      MOSUNNY   64  46  53 CALM      30.10S
FREMONT        FAIR      60  37  40 W9        30.10S
HOLLAND        SUNNY     60  44  55 W10       30.13F
GRAND RAPIDS   MOSUNNY   62  41  46 W15       30.11F
IONIA          FAIR      62  41  45 W12       30.09S
KALAMAZOO      PTSUNNY   64  46  52 NW14      30.11S
LUDINGTON      SUNNY     59  43  54 SW10      30.10F
MARSHALL       PTSUNNY   64  46  51 W8        30.09S
MOUNT PLEASANT MOSUNNY   62  42  47 W5        30.07S
MUSKEGON       SUNNY     61  40  45 W10       30.12F
SOUTH HAVEN    SUNNY     62  46  56 NW8       30.12F
$$
MIZ016>042-162300-
NORTHERN LOWER MICHIGAN

CITY           SKY/WX    TMP DP  RH WIND       PRES   REMARKS
ALPENA         SUNNY     63  38  39 W6        30.02F
BEAVER ISLAND  SUNNY     61  47  60 SW12G21   30.02F
BELLAIRE       SUNNY     62  37  39 W6        30.06S
CADILLAC       SUNNY     59  41  51 W7        30.07S
CHARLEVOIX     SUNNY     61  41  48 SW16      30.07F
FRANKFORT      SUNNY     61  43  52 W6        30.08S
GAYLORD        SUNNY     59  38  45 W10       30.05S
GRAYLING       SUNNY     62  38  40 W8        30.05F
HARBOR SPRINGS SUNNY     61  41  48 W10       30.04S
HOUGHTON LAKE  SUNNY     61  40  45 W9        30.06F
MANISTEE       SUNNY     59  37  44 W10G16    30.09F
OSCODA         SUNNY     63  44  49 W9        30.03S
PELLSTON       SUNNY     60  40  47 W9G24     30.03F
ROGERS CITY    SUNNY     63  44  50 W6        30.03S
TRAVERSE CITY  SUNNY     62  38  40 W8        30.05F
$$
MIZ007>008-015-162300-
EASTERN UPPER MICHIGAN

CITY           SKY/WX    TMP DP  RH WIND       PRES   REMARKS
KINROSS        MOSUNNY   59  39  47 SW9G20    29.99S
MACKINAC ISLAN SUNNY     58  43  56 SW14G24   30.01F
NEWBERRY       MOSUNNY   58  46  64 S15G28    29.98S
S. S. MARIE    MOSUNNY   60  42  51 SW13      29.96F
$$
MIZ004>006-011>014-085-162300-
CENTRAL UPPER MICHIGAN

CITY           SKY/WX    TMP DP  RH WIND       PRES   REMARKS
MANISTIQUE     SUNNY     60  52  74 S14G21    29.98F
ESCANABA       MOSUNNY   68  43  40 W15G21    29.98F
MENOMINEE      SUNNY     66  43  42 W8        30.01F
SAWYER-GWINN   CLOUDY    66  41  39 W8        29.97F
$$
MIZ001>003-009>011-084-162300-
WESTERN UPPER MICHIGAN

CITY           SKY/WX    TMP DP  RH WIND       PRES   REMARKS
IRON MOUNTAIN  SUNNY     67  40  37 W8G18     29.99F
HOUGHTON       CLOUDY    60  43  53 W12       29.96F
COPPER HARBOR    N/A     54  46  74 N15       29.98R
IRONWOOD       PTSUNNY   64  45  48 W9        29.98F
$$

ABBREVIATIONS USED IN REMARKS
   TC - TEMPERATURE IN CELSIUS
  WCI - WIND CHILL INDEX
   HX - HEAT INDEX
  VSB - VISIBILITY




USA.gov is the U.S. government's official web portal to all federal, state and local government web resources and services.